User: anonymous   Login
Location: Chillicothe
(39.7950°N, 93.5520°W)
Time: 04:00:04
(UTC-05:00)
Language:

Explorer 11/Cluster Stage 4 - Orbit

View from above orbital plane
View from above orbital plane
View from above satellite
View from above satellite

Ground track
Ground track

The orbit data is extracted from the following two-line orbital elements,

1   107U 61013A   19286.05285073  .00000292  00000-0  19656-4 0  9999
2   107  28.7881 144.2193 0547217 346.9345  11.7546 14.08830484930712
Epoch (UTC): 13 October 2019 01:16:06
Eccentricity: 0.0547217
inclination: 28.7881°
perigee height: 467 km
apogee height: 1259 km
right ascension of ascending node: 144.2193°
argument of perigee: 346.9345°
revolutions per day: 14.08830484
mean anomaly at epoch: 11.7546°
orbit number at epoch: 93071

The dashed part of the orbit path shows where the satellite is in the earth's shadow,  

DLR